Regional Weather Roundup
Issued by NWS Albany, NY

Home | Current Version | Previous Version | Text Only | Print | Product List | Glossary On
Versions: 1 2 3 4 5 6 7 8 9 10 11 12 13 14 15 16 17 18 19 20 21 22 23 24 25 26 27 28 29 30 31 32 33 34 35 36 37 38 39 40 41 42 43 44 45 46 47 48 49 50
000
ASUS41 KALY 291710
RWRALY

NEW YORK STATE HOURLY WEATHER ROUNDUP
NATIONAL WEATHER SERVICE ALBANY NY
100 PM EDT WED JUL 29 2015

NOTE: "FAIR" INDICATES FEW OR NO CLOUDS BELOW 12,000 FEET WITH NO
SIGNIFICANT WEATHER AND/OR NO OBSTRUCTIONS TO VISIBILITY.

NYZ032-033-038>043-046>054-057>066-NYZ062>081-291800-
EAST


CITY           SKY/WX    TMP DP  RH WIND       PRES   REMARKS
ALBANY         PTSUNNY   89  62  40 W3        29.97F
GLENS FALLS    SUNNY     86  68  54 SE12      29.96F
POUGHKEEPSIE   MOSUNNY   89  63  41 VRB3      29.96F HX  90
NEWBURGH       SUNNY     88  66  48 CALM      30.00F HX  90
MONTGOMERY     SUNNY     92  61  35 VRB6      29.98F HX  92
WHITE PLAINS   PTSUNNY   89  62  40 NW9       29.98F
ISLIP          CLOUDY    89  69  51 S9        29.95F HX  93
NEW YORK CITY  PTSUNNY   92  63  38 NE7       29.96F HX  93
CENTRAL PARK   MOSUNNY   93  61  34 VRB5      29.99F HX  93
$$

NYZ005>009-017-018-044>046-055-056-291800-
CENTRAL


CITY           SKY/WX    TMP DP  RH WIND       PRES   REMARKS
FULTON         SUNNY     87  68  52 S7        29.97F HX  90
SYRACUSE       PTSUNNY   88  68  51 N3        29.96F HX  91
ROME           SUNNY     86  64  47 S5        29.99F
ELMIRA         MOSUNNY   86  66  51 CALM      29.99F
BINGHAMTON     MOSUNNY   82  64  54 S6        30.05F
MONTICELLO     MOSUNNY   86  61  42 SW6       30.06S
$$

NYZ026>034-041>043-291800-
NORTH


CITY           SKY/WX    TMP DP  RH WIND       PRES   REMARKS
WATERTOWN      MOSUNNY   84  68  58 W12       29.95F
FORT DRUM      NOT AVBL
MASSENA        PTSUNNY   87  71  58 SW8       29.92F HX  93
SARANAC LAKE   MOSUNNY   84  62  47 VRB6      29.99F
PLATTSBURGH    SUNNY     84  72  67 SE9       29.91F
$$

NYZ001>004-010>016-019>021-291800-
WEST


CITY           SKY/WX    TMP DP  RH WIND       PRES   REMARKS
NIAGARA FALLS  PTSUNNY   87  65  47 SW10      29.95F
BUFFALO        MOSUNNY   88  58  36 SW9       29.96F
DUNKIRK        MOSUNNY   89  57  33 S7        29.97F
JAMESTOWN      MOSUNNY   82  57  42 SW7       30.04F
WELLSVILLE     MOSUNNY   85  60  42 SE8       30.07F
ROCHESTER      CLOUDY    87  64  46 SW8       29.97F
PENN YAN       SUNNY     87  66  49 S7        30.00F
$$

             KEY
       WCI = WIND CHILL INDEX
       VSB = VISIBILITY
       HX  = HEAT INDEX
$$



USA.gov is the U.S. government's official web portal to all federal, state and local government web resources and services.